TimeCDT,TemperatureF,Dew PointF,Humidity,Sea Level PressureIn,VisibilityMPH,Wind Direction,Wind SpeedMPH,Gust SpeedMPH,PrecipitationIn,Events,Conditions,WindDirDegrees,DateUTC
12:52 AM,45.0,39.9,82,29.74,10.0,SE,10.4,-,N/A,,Clear,130,2012-10-21 05:52:00
1:52 AM,46.4,39.2,76,29.72,10.0,SE,11.5,-,N/A,,Clear,130,2012-10-21 06:52:00
2:52 AM,45.0,39.9,82,29.72,10.0,SE,9.2,-,N/A,,Clear,130,2012-10-21 07:52:00
3:52 AM,43.0,39.0,86,29.70,10.0,SE,10.4,-,N/A,,Clear,130,2012-10-21 08:52:00
4:52 AM,44.6,39.2,81,29.68,10.0,SE,10.4,-,N/A,,Clear,130,2012-10-21 09:52:00
5:52 AM,42.8,39.2,87,29.69,10.0,SE,9.2,-,N/A,,Clear,130,2012-10-21 10:52:00
6:52 AM,46.0,41.0,83,29.71,10.0,SSE,11.5,-,N/A,,Clear,150,2012-10-21 11:52:00
7:52 AM,44.6,41.0,87,29.72,10.0,ESE,8.1,-,N/A,,Clear,120,2012-10-21 12:52:00
8:52 AM,46.9,43.0,86,29.75,10.0,SE,6.9,-,N/A,,Clear,140,2012-10-21 13:52:00
9:52 AM,53.1,46.0,77,29.75,10.0,SE,9.2,-,N/A,,Clear,140,2012-10-21 14:52:00
10:52 AM,59.0,48.0,67,29.77,10.0,Calm,Calm,-,N/A,,Clear,0,2012-10-21 15:52:00
11:52 AM,64.0,48.9,58,29.76,10.0,SSW,8.1,-,N/A,,Clear,200,2012-10-21 16:52:00
12:52 PM,70.0,48.9,47,29.76,10.0,WSW,5.8,-,N/A,,Clear,240,2012-10-21 17:52:00
1:52 PM,73.0,48.0,41,29.74,9.0,Calm,Calm,-,N/A,,Clear,0,2012-10-21 18:52:00
2:52 PM,75.0,48.0,38,29.74,10.0,North,6.9,-,N/A,,Clear,360,2012-10-21 19:52:00
3:52 PM,75.9,46.9,36,29.74,10.0,NW,4.6,-,N/A,,Clear,320,2012-10-21 20:52:00
4:52 PM,75.2,46.4,36,29.74,10.0,Calm,Calm,-,N/A,,Clear,0,2012-10-21 21:52:00
5:52 PM,70.0,46.9,44,29.75,10.0,NW,10.4,-,N/A,,Clear,320,2012-10-21 22:52:00
6:52 PM,62.1,45.0,53,29.77,10.0,North,8.1,-,N/A,,Clear,350,2012-10-21 23:52:00
7:52 PM,59.0,45.0,60,29.81,10.0,North,8.1,-,N/A,,Partly Cloudy,360,2012-10-22 00:52:00
8:52 PM,61.0,46.0,58,29.81,10.0,North,9.2,-,N/A,,Clear,360,2012-10-22 01:52:00
9:52 PM,57.9,46.9,67,29.83,10.0,NNE,15.0,-,N/A,,Scattered Clouds,20,2012-10-22 02:52:00
10:52 PM,54.0,46.0,75,29.86,10.0,NNE,11.5,-,N/A,,Mostly Cloudy,20,2012-10-22 03:52:00
11:52 PM,52.0,46.0,80,29.86,10.0,NNE,11.5,-,N/A,,Scattered Clouds,20,2012-10-22 04:52:00